[[{"header":{"parameterUnit":"m.s-1","parameterCategory":1,"la1":30.2991,"la2":30.254,"lo1":-89.0895,"lo2":-89.0444,"dy":0.0017,"dx":0.0017,"nx":28,"ny":28,"refTime":"2024-07-15T21:00:00:Z","depth":0,"parameterNumber":2,"parameterNumberName":"U-component_of_WINDS"},"data":[0,0,0,0,0,0,0,0,0,0,0,0,0,0,0,0,0,0,0,0,0,0,0,0,0,0,0,0,0,0,0,0,0,0,0,0,0,0,0,0,0,0,0,0,0,0,0,0,0,0,0,0,0,0,0,0,0,0,1.8773,1.8774,0,1.8816,1.8816,1.8817,1.8845,1.8845,1.8846,1.8846,1.889,1.8891,1.8892,0,0,0,0,0,0,0,0,0,0,0,0,0,1.8717,1.8718,1.8773,1.8774,1.8774,1.8816,1.8816,1.8817,1.8845,1.8845,1.8846,1.8846,1.889,1.8891,1.8892,0,0,0,0,0,0,0,0,0,0,0,0,0,1.8749,1.8718,1.8773,1.8793,1.8796,1.8816,1.8816,1.8817,1.8845,1.8845,1.8846,1.8846,1.8889,1.8891,1.8892,1.8896,0,0,1.8897,1.8897,0,0,0,0,0,0,0,0,1.8747,1.8751,1.879,1.8792,1.8795,1.8826,1.8813,1.8843,1.8845,1.8826,1.8846,1.8846,1.8868,1.8872,1.8879,1.8898,1.89,1.8897,1.8898,1.8898,1.8899,0,0,0,0,0,0,0,1.8745,1.8749,1.879,1.879,1.8793,1.8801,1.8805,1.8819,1.8845,1.8828,1.883,1.8835,1.887,1.8877,1.888,1.89,1.8897,1.8898,1.8899,1.89,1.8924,1.8924,0,0,0,0,0,0,1.8739,1.8747,1.8789,1.8791,1.8771,1.8801,1.8807,1.8815,1.8845,1.885,1.8835,1.8836,1.8875,1.8878,1.8882,1.8888,1.8898,1.89,1.8901,1.8924,1.8924,1.8924,0,0,0,0,0,0,1.8738,1.8743,1.8787,1.877,1.8776,1.8802,1.8811,1.8816,1.8824,1.885,1.8855,1.8838,1.8875,1.888,1.8892,1.889,1.89,1.8902,1.8924,1.8924,1.8924,1.89,0,0,0,0,0,0,1.8736,1.8742,1.8743,1.877,1.8777,1.8796,1.8811,1.8817,1.8826,1.8829,1.8854,1.8859,1.8876,1.889,1.8893,1.8892,1.8903,1.8925,1.8924,1.8924,1.8901,1.8898,1.8897,0,0,0,0,0,1.8734,1.8735,1.8743,1.8748,1.8779,1.8796,1.88,1.882,1.8826,1.8828,1.8845,1.8858,1.8889,1.8891,1.8895,1.8894,1.8925,1.8924,1.8924,1.8902,1.8899,1.8897,0,0,0,0,0,0,1.8708,1.8739,1.8748,1.8758,1.8774,1.8801,1.8804,1.8816,1.8831,1.8832,1.8856,1.8862,1.8871,1.8884,1.8885,1.8899,1.8909,1.8909,1.889,1.8888,1.8886,1.8883,1.8904,0,0,0,0,0,1.8703,1.8714,1.8741,1.8747,1.8754,1.8777,1.8786,1.8799,1.8817,1.8824,1.8842,1.8859,1.8872,1.8881,1.8895,1.8903,1.8909,1.8904,1.8902,1.89,1.89,1.8905,1.8904,1.8922,1.8922,1.8922,0,0,1.8694,1.8712,1.8718,1.8742,1.8756,1.8767,1.8783,1.8794,1.8802,1.8826,1.8838,1.8852,1.8872,1.8882,1.8887,1.8893,1.8897,1.89,1.8898,1.8899,1.8905,1.8903,1.8901,1.8921,1.8921,1.8921,0,0,1.8683,1.8697,1.8704,1.8718,1.8739,1.8754,1.8756,1.878,1.879,1.8803,1.8821,1.8831,1.8854,1.8868,1.8878,1.8872,1.8885,1.8876,1.8865,1.8869,1.8868,1.8867,1.8864,1.8863,1.8876,1.8876,1.8876,0,1.8668,1.8685,1.8706,1.8716,1.8726,1.8747,1.8754,1.8766,1.8791,1.8797,1.8803,1.8833,1.8848,1.8861,1.886,1.8867,1.887,1.8873,1.8866,1.8866,1.8865,1.8863,1.8862,1.8874,1.8874,1.8875,1.8875,0,1.8667,1.8678,1.8681,1.8704,1.8714,1.8723,1.8744,1.8753,1.8765,1.878,1.8793,1.8812,1.883,1.8834,1.8847,1.885,1.8852,1.8862,1.8872,1.8861,1.886,1.8859,1.8873,1.8873,1.8873,1.8874,0,0,1.864,1.8674,1.8675,1.8686,1.871,1.872,1.8729,1.8747,1.8753,1.8769,1.8778,1.8797,1.8806,1.8817,1.8831,1.8835,1.8829,1.8845,1.8846,1.8841,1.8833,1.8826,1.8824,1.8838,1.8838,1.8838,1.8831,0,1.8632,1.865,1.8668,1.868,1.869,1.8711,1.8719,1.8735,1.8749,1.876,1.8776,1.8789,1.88,1.8807,1.8812,1.8829,1.8828,1.8829,1.8846,1.8846,1.884,1.8824,1.8816,1.8809,1.8831,1.8831,1.8831,0,1.8626,1.8641,1.8653,1.8676,1.8682,1.8689,1.8706,1.8717,1.8735,1.8745,1.8758,1.8773,1.8784,1.8793,1.8808,1.8809,1.8817,1.8826,1.8826,1.8828,1.8838,1.8825,1.8807,1.8806,1.883,1.883,1.883,0,1.8605,1.8628,1.8638,1.8647,1.8675,1.8679,1.8691,1.871,1.8719,1.8735,1.8741,1.8758,1.8767,1.8779,1.8798,1.8803,1.8812,1.8822,1.882,1.882,1.8821,1.8821,1.8804,1.8826,1.8826,1.8826,1.8826,0,1.8594,1.8601,1.863,1.8636,1.8644,1.8665,1.8672,1.8686,1.8703,1.8712,1.8731,1.8739,1.8764,1.8775,1.879,1.8801,1.8805,1.8813,1.8817,1.8811,1.881,1.8817,1.8818,1.8826,1.8826,1.8826,1.8826,0,1.8573,1.8592,1.8605,1.863,1.8636,1.8641,1.8663,1.867,1.8685,1.8696,1.87,1.8724,1.8738,1.8758,1.8779,1.8789,1.8797,1.8804,1.8791,1.8793,1.879,1.879,1.8777,1.8776,1.8798,1.8798,1.8798,0,1.8565,1.857,1.8596,1.8603,1.8614,1.8626,1.8636,1.8657,1.8666,1.8688,1.8692,1.8708,1.8721,1.8743,1.8762,1.8778,1.8785,1.8779,1.8788,1.8782,1.8785,1.8784,1.8785,1.8777,1.8777,1.8777,1.8776,0,1.8548,1.8557,1.857,1.8587,1.8597,1.8611,1.8626,1.8631,1.8656,1.8665,1.868,1.869,1.8711,1.8726,1.8745,1.8757,1.8771,1.8774,1.8774,1.8768,1.8761,1.8764,1.8785,1.8774,1.8774,1.8774,1.8775,1.8775,1.8533,1.8539,1.8558,1.8572,1.8585,1.8598,1.8606,1.8622,1.8634,1.8653,1.8664,1.8678,1.8697,1.8723,1.8735,1.8746,1.8752,1.8752,1.8752,1.8752,1.875,1.8759,1.8749,1.875,1.875,1.875,1.875,0,1.8518,1.8531,1.8543,1.8563,1.8574,1.8585,1.8602,1.8611,1.8623,1.8639,1.8652,1.8668,1.8683,1.8703,1.872,1.8725,1.8732,1.8729,1.8728,1.8731,1.8744,1.8742,1.8723,1.8723,1.8723,1.8723,1.8723,1.8723,1.8511,1.8521,1.8532,1.8549,1.8563,1.8576,1.8585,1.8597,1.861,1.8628,1.864,1.8653,1.8671,1.8689,1.8703,1.8708,1.8713,1.8708,1.8716,1.8728,1.873,1.8732,1.8731,1.8709,1.8709,1.8702,1.8702,1.8702]},{"header":{"parameterUnit":"m.s-1","parameterCategory":1,"la1":30.2991,"la2":30.254,"lo1":-89.0895,"lo2":-89.0444,"dy":0.0017,"dx":0.0017,"nx":28,"ny":28,"refTime":"2024-07-15T21:00:00:Z","depth":0,"parameterNumber":3,"parameterNumberName":"V-component_of_WINDS"},"data":[0,0,0,0,0,0,0,0,0,0,0,0,0,0,0,0,0,0,0,0,0,0,0,0,0,0,0,0,0,0,0,0,0,0,0,0,0,0,0,0,0,0,0,0,0,0,0,0,0,0,0,0,0,0,0,0,0,0,1.6179,1.6178,0,1.6087,1.6086,1.6085,1.6038,1.6038,1.6038,1.6038,1.594,1.5938,1.5935,0,0,0,0,0,0,0,0,0,0,0,0,0,1.6312,1.631,1.618,1.6178,1.6177,1.6087,1.6086,1.6084,1.6038,1.6038,1.6038,1.6038,1.5941,1.5938,1.5935,0,0,0,0,0,0,0,0,0,0,0,0,0,1.6241,1.631,1.618,1.6143,1.6139,1.6087,1.6086,1.6084,1.6038,1.6038,1.6038,1.6038,1.5942,1.5938,1.5934,1.5911,0,0,1.5923,1.5921,0,0,0,0,0,0,0,0,1.6245,1.6236,1.615,1.6146,1.6141,1.6074,1.6097,1.6026,1.6038,1.6076,1.6038,1.6038,1.5984,1.5977,1.596,1.5907,1.5903,1.5922,1.592,1.5918,1.5917,0,0,0,0,0,0,0,1.625,1.624,1.6143,1.6148,1.6143,1.613,1.612,1.6083,1.6031,1.6073,1.6069,1.6059,1.5982,1.5964,1.5957,1.5901,1.5922,1.5919,1.5917,1.5915,1.5823,1.5823,0,0,0,0,0,0,1.6261,1.6244,1.6146,1.614,1.6194,1.6128,1.6116,1.6095,1.6032,1.6022,1.6059,1.6057,1.597,1.5962,1.5953,1.5921,1.5918,1.5915,1.5912,1.5823,1.5823,1.5823,0,0,0,0,0,0,1.6264,1.6253,1.6149,1.6191,1.6177,1.6126,1.6102,1.6094,1.6075,1.6022,1.6012,1.605,1.597,1.5959,1.5922,1.5917,1.5913,1.5909,1.5823,1.5823,1.5823,1.5858,0,0,0,0,0,0,1.6268,1.6254,1.6246,1.6191,1.6175,1.6121,1.6102,1.6092,1.6069,1.6065,1.601,1.6001,1.5969,1.5928,1.5918,1.5912,1.5906,1.5824,1.5823,1.5823,1.5857,1.5859,1.5861,0,0,0,0,0,1.6273,1.6259,1.6246,1.6234,1.6163,1.6121,1.6111,1.6075,1.6069,1.6059,1.6025,1.6003,1.592,1.5925,1.5913,1.5906,1.5824,1.5823,1.5823,1.5856,1.5858,1.5861,0,0,0,0,0,0,1.6314,1.6251,1.6236,1.6204,1.6168,1.6113,1.61,1.6079,1.6043,1.6042,1.5997,1.5985,1.5952,1.5925,1.5932,1.5879,1.5869,1.5867,1.5898,1.59,1.5902,1.5909,1.5903,0,0,0,0,0,1.6319,1.6291,1.6237,1.6214,1.6197,1.6152,1.6131,1.6107,1.6068,1.6052,1.6015,1.5977,1.5941,1.5919,1.5884,1.5853,1.5839,1.5842,1.5844,1.5846,1.5844,1.5824,1.5824,1.5822,1.5822,1.5822,0,0,1.633,1.6292,1.6276,1.6221,1.619,1.6161,1.6139,1.6109,1.6086,1.6047,1.601,1.5981,1.5936,1.5901,1.5884,1.5877,1.5841,1.5845,1.5847,1.5844,1.5823,1.5824,1.5824,1.5822,1.5822,1.5822,0,0,1.6333,1.6303,1.6279,1.6249,1.6203,1.6173,1.6168,1.6115,1.6095,1.6057,1.6027,1.5999,1.594,1.5908,1.5885,1.5876,1.5854,1.5866,1.5875,1.5856,1.5856,1.5856,1.5852,1.5851,1.5864,1.5864,1.5864,0,1.6352,1.6307,1.627,1.6241,1.6217,1.6181,1.6157,1.6129,1.6073,1.6057,1.6051,1.5976,1.5942,1.5899,1.5897,1.588,1.5871,1.5871,1.5859,1.5859,1.5858,1.5854,1.5852,1.5866,1.5865,1.5865,1.5865,0,1.6331,1.63,1.6287,1.6235,1.621,1.6183,1.6141,1.6119,1.6097,1.6067,1.6028,1.5987,1.5943,1.5931,1.5908,1.5884,1.5882,1.5868,1.5857,1.5861,1.5855,1.5854,1.5868,1.5867,1.5867,1.5866,0,0,1.6358,1.6286,1.6281,1.6257,1.6204,1.6178,1.615,1.6107,1.6089,1.6052,1.6025,1.5976,1.5963,1.5936,1.591,1.5893,1.5887,1.5881,1.5879,1.5883,1.5857,1.5867,1.5866,1.5873,1.5873,1.5872,1.5861,0,1.6353,1.6301,1.6267,1.6228,1.6198,1.6163,1.6138,1.6102,1.6073,1.6043,1.601,1.5976,1.5962,1.5945,1.5927,1.5892,1.5882,1.5893,1.5847,1.5846,1.5859,1.5863,1.5874,1.5865,1.5859,1.5858,1.5858,0,1.6341,1.6305,1.6264,1.6213,1.6199,1.6177,1.6135,1.6107,1.6064,1.6044,1.6014,1.5987,1.5954,1.5947,1.59,1.5908,1.5887,1.5867,1.5866,1.5859,1.5852,1.5857,1.5862,1.586,1.5855,1.5855,1.5855,0,1.6363,1.6305,1.6272,1.6253,1.6193,1.6178,1.6152,1.611,1.6086,1.6049,1.6033,1.5992,1.5969,1.5937,1.5899,1.5898,1.5856,1.5845,1.5837,1.5838,1.583,1.5831,1.5831,1.5818,1.5818,1.5818,1.5818,0,1.6361,1.6337,1.6282,1.6261,1.6233,1.6193,1.6165,1.6136,1.6099,1.6071,1.6039,1.6013,1.5965,1.5934,1.5904,1.5869,1.5859,1.5841,1.5833,1.5844,1.5846,1.5829,1.5828,1.5817,1.5818,1.5818,1.5818,0,1.6381,1.6343,1.6305,1.6252,1.6238,1.6219,1.6172,1.615,1.612,1.6086,1.6075,1.6027,1.5988,1.5948,1.5895,1.5874,1.584,1.583,1.5855,1.585,1.5844,1.5845,1.5833,1.5829,1.582,1.582,1.582,0,1.6382,1.6363,1.6307,1.6287,1.6262,1.623,1.6206,1.6165,1.6141,1.6091,1.6075,1.6034,1.5999,1.5939,1.5898,1.5857,1.5845,1.5843,1.5838,1.5849,1.5844,1.5845,1.5842,1.5845,1.5845,1.5846,1.5846,0,1.6387,1.637,1.6336,1.6297,1.6269,1.6235,1.62,1.6185,1.6138,1.6112,1.6072,1.6045,1.5991,1.595,1.5905,1.5877,1.5853,1.5848,1.5844,1.5854,1.5869,1.5859,1.5859,1.5848,1.5848,1.5848,1.5848,1.5847,1.6397,1.6378,1.6336,1.6299,1.6269,1.6237,1.6214,1.6181,1.6147,1.6101,1.6079,1.6039,1.5996,1.5932,1.5905,1.5872,1.5865,1.5859,1.5858,1.5857,1.5859,1.5875,1.5864,1.5863,1.5863,1.5863,1.5863,0,1.64,1.6371,1.6338,1.6291,1.6262,1.6243,1.6203,1.618,1.6146,1.6108,1.6075,1.6029,1.5989,1.5945,1.5902,1.5885,1.5872,1.5875,1.5875,1.5869,1.5868,1.5875,1.5885,1.5885,1.5885,1.5885,1.5885,1.5885,1.6398,1.6364,1.6341,1.6291,1.6262,1.6224,1.6202,1.6172,1.6142,1.6092,1.606,1.6032,1.5991,1.5945,1.5907,1.5895,1.5881,1.5886,1.5871,1.5871,1.5869,1.5867,1.5874,1.5883,1.5883,1.5874,1.5874,1.5874]}]]